����������;��������(kWh)
2018-12-31 00:00;81
2018-12-31 00:15;80,4
2018-12-31 00:30;80,75
2018-12-31 00:45;80,95
2018-12-31 01:00;82,6
2018-12-31 01:15;80,75
2018-12-31 01:30;81,1
2018-12-31 01:45;81,4
2018-12-31 02:00;81,35
2018-12-31 02:15;82,2
2018-12-31 02:30;83,75
2018-12-31 02:45;80,2
2018-12-31 03:00;81,45
2018-12-31 03:15;86,75
2018-12-31 03:30;86,85
2018-12-31 03:45;88,9
2018-12-31 04:00;88
2018-12-31 04:15;86,8
2018-12-31 04:30;86,6
2018-12-31 04:45;87,4
2018-12-31 05:00;89,4
2018-12-31 05:15;87,9
2018-12-31 05:30;88,55
2018-12-31 05:45;87,25
2018-12-31 06:00;87,65
2018-12-31 06:15;86,65
2018-12-31 06:30;85,8
2018-12-31 06:45;86,35
2018-12-31 07:00;84,65
2018-12-31 07:15;85,65
2018-12-31 07:30;89,25
2018-12-31 07:45;132,9
2018-12-31 08:00;127,95
2018-12-31 08:15;110,7
2018-12-31 08:30;99,6
2018-12-31 08:45;108,6
2018-12-31 09:00;114,2
2018-12-31 09:15;108,45
2018-12-31 09:30;117,2
2018-12-31 09:45;124,8
2018-12-31 10:00;117,9
2018-12-31 10:15;126,1
2018-12-31 10:30;117,7
2018-12-31 10:45;117,6
2018-12-31 11:00;123,5
2018-12-31 11:15;116,95
2018-12-31 11:30;124,8
2018-12-31 11:45;108,25
2018-12-31 12:00;111
2018-12-31 12:15;112,45
2018-12-31 12:30;105,65
2018-12-31 12:45;115,8
2018-12-31 13:00;108,7
2018-12-31 13:15;102,85
2018-12-31 13:30;103,2
2018-12-31 13:45;90,9
2018-12-31 14:00;95,65
2018-12-31 14:15;88,4
2018-12-31 14:30;98,2
2018-12-31 14:45;89,8
2018-12-31 15:00;91,45
2018-12-31 15:15;90,25
2018-12-31 15:30;94,1
2018-12-31 15:45;89,9
2018-12-31 16:00;85,4
2018-12-31 16:15;83,05
2018-12-31 16:30;80,9
2018-12-31 16:45;77,55
2018-12-31 17:00;76,8
2018-12-31 17:15;74,3
2018-12-31 17:30;78,25
2018-12-31 17:45;79,85
2018-12-31 18:00;81,6
2018-12-31 18:15;84,75
2018-12-31 18:30;84,5
2018-12-31 18:45;85,9
2018-12-31 19:00;84,4
2018-12-31 19:15;80,5
2018-12-31 19:30;82,75
2018-12-31 19:45;83,5
2018-12-31 20:00;85
2018-12-31 20:15;83,5
2018-12-31 20:30;80,4
2018-12-31 20:45;81,9
2018-12-31 21:00;81,7
2018-12-31 21:15;82,85
2018-12-31 21:30;84,2
2018-12-31 21:45;79,2
2018-12-31 22:00;78,3
2018-12-31 22:15;78,65
2018-12-31 22:30;78,05
2018-12-31 22:45;77,65
2018-12-31 23:00;87,4
2018-12-31 23:15;84,1
2018-12-31 23:30;83,95
2018-12-31 23:45;87,9
2019-01-01 00:00;77,1
2019-01-01 00:15;76,7
2019-01-01 00:30;79,05
2019-01-01 00:45;77,8
2019-01-01 01:00;76,15
2019-01-01 01:15;76,65
2019-01-01 01:30;77,25
2019-01-01 01:45;76,5
2019-01-01 02:00;77,6
2019-01-01 02:15;77,75
2019-01-01 02:30;76,8
2019-01-01 02:45;74,85
2019-01-01 03:00;76,35
2019-01-01 03:15;76,3
2019-01-01 03:30;77,5
2019-01-01 03:45;79,25
2019-01-01 04:00;79,65
2019-01-01 04:15;80,1
2019-01-01 04:30;79,3
2019-01-01 04:45;79,85
2019-01-01 05:00;80,85
2019-01-01 05:15;80,15
2019-01-01 05:30;79,75
2019-01-01 05:45;79,8
2019-01-01 06:00;77,95
2019-01-01 06:15;79,75
2019-01-01 06:30;81,35
2019-01-01 06:45;81
2019-01-01 07:00;80,15
2019-01-01 07:15;78,7
2019-01-01 07:30;78,65
2019-01-01 07:45;78,95
2019-01-01 08:00;78,05
2019-01-01 08:15;78,35
2019-01-01 08:30;77,95
2019-01-01 08:45;77,9
2019-01-01 09:00;78,3
2019-01-01 09:15;77,4
2019-01-01 09:30;80,65
2019-01-01 09:45;78,55
2019-01-01 10:00;78,25
2019-01-01 10:15;77,1
2019-01-01 10:30;72,5
2019-01-01 10:45;72
2019-01-01 11:00;70,55
2019-01-01 11:15;70,5
2019-01-01 11:30;74
2019-01-01 11:45;72,65
2019-01-01 12:00;71,25
2019-01-01 12:15;73,35
2019-01-01 12:30;71,7
2019-01-01 12:45;72,55
2019-01-01 13:00;72,8
2019-01-01 13:15;73,75
2019-01-01 13:30;72,25
2019-01-01 13:45;72,65
2019-01-01 14:00;73,2
2019-01-01 14:15;74,8
2019-01-01 14:30;72,6
2019-01-01 14:45;75,3
2019-01-01 15:00;73,15
2019-01-01 15:15;74
2019-01-01 15:30;75,05
2019-01-01 15:45;76,2
2019-01-01 16:00;72
2019-01-01 16:15;69,95
2019-01-01 16:30;72,5
2019-01-01 16:45;75
2019-01-01 17:00;70,65
2019-01-01 17:15;71,2
2019-01-01 17:30;71,95
2019-01-01 17:45;78,95
2019-01-01 18:00;81,6
2019-01-01 18:15;85,25
2019-01-01 18:30;82,7
2019-01-01 18:45;83,15
2019-01-01 19:00;82,4
2019-01-01 19:15;83,45
2019-01-01 19:30;83,45
2019-01-01 19:45;86,25
2019-01-01 20:00;84,6
2019-01-01 20:15;83,7
2019-01-01 20:30;83,2
2019-01-01 20:45;83,45
2019-01-01 21:00;83
2019-01-01 21:15;81,7
2019-01-01 21:30;79
2019-01-01 21:45;76,55
2019-01-01 22:00;75,85
2019-01-01 22:15;77,2
2019-01-01 22:30;76,2
2019-01-01 22:45;76,8
2019-01-01 23:00;86,75
2019-01-01 23:15;81,65
2019-01-01 23:30;83,8
2019-01-01 23:45;90,35
2019-01-02 00:00;78,75
2019-01-02 00:15;77,4
2019-01-02 00:30;78,8
2019-01-02 00:45;77,95
2019-01-02 01:00;77,85
2019-01-02 01:15;80,4
2019-01-02 01:30;79,3
2019-01-02 01:45;73,7
2019-01-02 02:00;78,85
2019-01-02 02:15;80,6
2019-01-02 02:30;80,25
2019-01-02 02:45;78,1
2019-01-02 03:00;77,9
2019-01-02 03:15;77,7
2019-01-02 03:30;78,65
2019-01-02 03:45;82,35
2019-01-02 04:00;77,25
2019-01-02 04:15;76,15
2019-01-02 04:30;76,2
2019-01-02 04:45;78,55
2019-01-02 05:00;79,45
2019-01-02 05:15;76,4
2019-01-02 05:30;75,3
2019-01-02 05:45;75,7
2019-01-02 06:00;75,95
2019-01-02 06:15;74,55
2019-01-02 06:30;74,8
2019-01-02 06:45;75,25
2019-01-02 07:00;75,6
2019-01-02 07:15;77,65
2019-01-02 07:30;79,45
2019-01-02 07:45;82,15
2019-01-02 08:00;89,2
2019-01-02 08:15;106,05
2019-01-02 08:30;136,05
2019-01-02 08:45;150,2
2019-01-02 09:00;203,75
2019-01-02 09:15;164,35
2019-01-02 09:30;171,15
2019-01-02 09:45;166,3
2019-01-02 10:00;160,95
2019-01-02 10:15;160,35
2019-01-02 10:30;155,2
2019-01-02 10:45;157,2
2019-01-02 11:00;153,05
2019-01-02 11:15;152,4
2019-01-02 11:30;151,3
2019-01-02 11:45;149,9
2019-01-02 12:00;146,2
2019-01-02 12:15;153,3
2019-01-02 12:30;147,8
2019-01-02 12:45;147,6
2019-01-02 13:00;148,8
2019-01-02 13:15;149,95
2019-01-02 13:30;157,45
2019-01-02 13:45;150,7
2019-01-02 14:00;140,65
2019-01-02 14:15;141,05
2019-01-02 14:30;138,35
2019-01-02 14:45;131,45
2019-01-02 15:00;121,05
2019-01-02 15:15;115,15
2019-01-02 15:30;108,25
2019-01-02 15:45;105,45
2019-01-02 16:00;100,35
2019-01-02 16:15;99,45
2019-01-02 16:30;95,85
2019-01-02 16:45;97,55
2019-01-02 17:00;96,65
2019-01-02 17:15;95,3
2019-01-02 17:30;96,45
2019-01-02 17:45;102,1
2019-01-02 18:00;103,2
2019-01-02 18:15;101,1
2019-01-02 18:30;108,85
2019-01-02 18:45;109,75
2019-01-02 19:00;106,3
2019-01-02 19:15;106,2
2019-01-02 19:30;106,25
2019-01-02 19:45;103,8
2019-01-02 20:00;101,25
2019-01-02 20:15;92,5
2019-01-02 20:30;89,2
2019-01-02 20:45;90,3
2019-01-02 21:00;93,4
2019-01-02 21:15;89,5
2019-01-02 21:30;87,3
2019-01-02 21:45;85,7
2019-01-02 22:00;85,9
2019-01-02 22:15;82,95
2019-01-02 22:30;85,55
2019-01-02 22:45;86,95
2019-01-02 23:00;91,65
2019-01-02 23:15;87,6
2019-01-02 23:30;92,1
2019-01-02 23:45;99,5
2019-01-03 00:00;87,15
2019-01-03 00:15;86,8
2019-01-03 00:30;85,65
2019-01-03 00:45;86,35
2019-01-03 01:00;86,9
2019-01-03 01:15;92,35
2019-01-03 01:30;99,6
2019-01-03 01:45;100,5
2019-01-03 02:00;98,75
2019-01-03 02:15;100,2
2019-01-03 02:30;102,45
2019-01-03 02:45;99,25
2019-01-03 03:00;100,6
2019-01-03 03:15;99,8
2019-01-03 03:30;95,6
2019-01-03 03:45;94,3
2019-01-03 04:00;92,4
2019-01-03 04:15;92,8
2019-01-03 04:30;91,35
2019-01-03 04:45;91,55
2019-01-03 05:00;92,25
2019-01-03 05:15;89,65
2019-01-03 05:30;91,3
2019-01-03 05:45;92,55
2019-01-03 06:00;92,65
2019-01-03 06:15;91,25
2019-01-03 06:30;91
2019-01-03 06:45;109,4
2019-01-03 07:00;121,1
2019-01-03 07:15;119,4
2019-01-03 07:30;169,3
2019-01-03 07:45;124,7
2019-01-03 08:00;140,6
2019-01-03 08:15;112,25
2019-01-03 08:30;127,6
2019-01-03 08:45;135,3
2019-01-03 09:00;123,95
2019-01-03 09:15;147,5
2019-01-03 09:30;147,7
2019-01-03 09:45;146,9
2019-01-03 10:00;162,75
2019-01-03 10:15;152,3
2019-01-03 10:30;162,65
2019-01-03 10:45;161,25
2019-01-03 11:00;160,5
2019-01-03 11:15;165,6
2019-01-03 11:30;164,25
2019-01-03 11:45;168,55
2019-01-03 12:00;170,35
2019-01-03 12:15;171,05
2019-01-03 12:30;174,7
2019-01-03 12:45;163,45
2019-01-03 13:00;170,5
2019-01-03 13:15;165,65
2019-01-03 13:30;168,8
2019-01-03 13:45;176,8
2019-01-03 14:00;165
2019-01-03 14:15;172,35
2019-01-03 14:30;168,5
2019-01-03 14:45;170,35
2019-01-03 15:00;156,05
2019-01-03 15:15;150,6
2019-01-03 15:30;136,6
2019-01-03 15:45;136
2019-01-03 16:00;131,05
2019-01-03 16:15;125,7
2019-01-03 16:30;121,25
2019-01-03 16:45;119,9
2019-01-03 17:00;119,25
2019-01-03 17:15;119,2
2019-01-03 17:30;115,25
2019-01-03 17:45;122,4
2019-01-03 18:00;121,9
2019-01-03 18:15;124,55
2019-01-03 18:30;113,25
2019-01-03 18:45;104,2
2019-01-03 19:00;103,85
2019-01-03 19:15;104,4
2019-01-03 19:30;105,25
2019-01-03 19:45;102,95
2019-01-03 20:00;100,05
2019-01-03 20:15;97,35
2019-01-03 20:30;82,75
2019-01-03 20:45;83,5
2019-01-03 21:00;83,7
2019-01-03 21:15;85,35
2019-01-03 21:30;85,55
2019-01-03 21:45;87,15
2019-01-03 22:00;87,25
2019-01-03 22:15;84,6
2019-01-03 22:30;86,2
2019-01-03 22:45;86,8
2019-01-03 23:00;91,6
2019-01-03 23:15;84,1
2019-01-03 23:30;87,1
2019-01-03 23:45;94,2
2019-01-04 00:00;80,25
2019-01-04 00:15;81,95
2019-01-04 00:30;82,25
2019-01-04 00:45;83,9
2019-01-04 01:00;85,85
2019-01-04 01:15;85,9
2019-01-04 01:30;85,05
2019-01-04 01:45;85,6
2019-01-04 02:00;99,95
2019-01-04 02:15;99,1
2019-01-04 02:30;99,25
2019-01-04 02:45;99,65
2019-01-04 03:00;99,65
2019-01-04 03:15;101,25
2019-01-04 03:30;101,1
2019-01-04 03:45;118,4
2019-01-04 04:00;126,35
2019-01-04 04:15;125,05
2019-01-04 04:30;124,5
2019-01-04 04:45;120,35
2019-01-04 05:00;120,3
2019-01-04 05:15;121
2019-01-04 05:30;114,15
2019-01-04 05:45;109,45
2019-01-04 06:00;108,45
2019-01-04 06:15;104,1
2019-01-04 06:30;107,35
2019-01-04 06:45;107,3
2019-01-04 07:00;109,2
2019-01-04 07:15;107,8
2019-01-04 07:30;171,9
2019-01-04 07:45;144,7
2019-01-04 08:00;130,65
2019-01-04 08:15;125,9
2019-01-04 08:30;133,9
2019-01-04 08:45;139
2019-01-04 09:00;143,35
2019-01-04 09:15;151,7
2019-01-04 09:30;152,75
2019-01-04 09:45;150,35
2019-01-04 10:00;152,45
2019-01-04 10:15;155,1
2019-01-04 10:30;157,15
2019-01-04 10:45;162,65
2019-01-04 11:00;166,7
2019-01-04 11:15;181,75
2019-01-04 11:30;234,85
2019-01-04 11:45;185
2019-01-04 12:00;172,9
2019-01-04 12:15;184,7
2019-01-04 12:30;178,2
2019-01-04 12:45;170,65
2019-01-04 13:00;176,95
2019-01-04 13:15;173,6
2019-01-04 13:30;182,1
2019-01-04 13:45;169,8
2019-01-04 14:00;176,25
2019-01-04 14:15;164,55
2019-01-04 14:30;171,7
2019-01-04 14:45;163,4
2019-01-04 15:00;168,4
2019-01-04 15:15;153,3
2019-01-04 15:30;160,2
2019-01-04 15:45;143,55
2019-01-04 16:00;144,45
2019-01-04 16:15;140,6
2019-01-04 16:30;139,9
2019-01-04 16:45;133,95
2019-01-04 17:00;127,7
2019-01-04 17:15;122,45
2019-01-04 17:30;121,3
2019-01-04 17:45;119,8
2019-01-04 18:00;119,45
2019-01-04 18:15;119,55
2019-01-04 18:30;121,65
2019-01-04 18:45;122,7
2019-01-04 19:00;114,35
2019-01-04 19:15;112,85
2019-01-04 19:30;107,75
2019-01-04 19:45;111,8
2019-01-04 20:00;113,85
2019-01-04 20:15;108,95
2019-01-04 20:30;107,75
2019-01-04 20:45;108,2
2019-01-04 21:00;107,75
2019-01-04 21:15;106,65
2019-01-04 21:30;108,6
2019-01-04 21:45;94,75
2019-01-04 22:00;92,8
2019-01-04 22:15;91,45
2019-01-04 22:30;91,45
2019-01-04 22:45;93,2
2019-01-04 23:00;99,4
2019-01-04 23:15;96
2019-01-04 23:30;99,95
2019-01-04 23:45;106,25
2019-01-05 00:00;94,55
2019-01-05 00:15;96,35
2019-01-05 00:30;96,25
2019-01-05 00:45;97,6
2019-01-05 01:00;97,25
2019-01-05 01:15;97,45
2019-01-05 01:30;95,55
2019-01-05 01:45;93,4
2019-01-05 02:00;88,6
2019-01-05 02:15;90,75
2019-01-05 02:30;92,05
2019-01-05 02:45;89,85
2019-01-05 03:00;88,25
2019-01-05 03:15;85,7
2019-01-05 03:30;86,3
2019-01-05 03:45;86,35
2019-01-05 04:00;84,1
2019-01-05 04:15;84,7
2019-01-05 04:30;83,95
2019-01-05 04:45;85,2
2019-01-05 05:00;83,95
2019-01-05 05:15;80,45
2019-01-05 05:30;79,35
2019-01-05 05:45;81,25
2019-01-05 06:00;82,85
2019-01-05 06:15;83,4
2019-01-05 06:30;79,15
2019-01-05 06:45;79
2019-01-05 07:00;77,95
2019-01-05 07:15;79,6
2019-01-05 07:30;76,75
2019-01-05 07:45;75,15
2019-01-05 08:00;73,25
2019-01-05 08:15;75,6
2019-01-05 08:30;77,15
2019-01-05 08:45;77,8
2019-01-05 09:00;74,85
2019-01-05 09:15;75
2019-01-05 09:30;76
2019-01-05 09:45;79,05
2019-01-05 10:00;79,35
2019-01-05 10:15;81,2
2019-01-05 10:30;81,25
2019-01-05 10:45;80,4
2019-01-05 11:00;80,9
2019-01-05 11:15;84,7
2019-01-05 11:30;82,35
2019-01-05 11:45;82,15
2019-01-05 12:00;83,35
2019-01-05 12:15;84,35
2019-01-05 12:30;87,15
2019-01-05 12:45;87,1
2019-01-05 13:00;87,1
2019-01-05 13:15;90,05
2019-01-05 13:30;90,55
2019-01-05 13:45;93,25
2019-01-05 14:00;91,75
2019-01-05 14:15;93,65
2019-01-05 14:30;90,75
2019-01-05 14:45;91,4
2019-01-05 15:00;91,95
2019-01-05 15:15;91,25
2019-01-05 15:30;92,25
2019-01-05 15:45;92,05
2019-01-05 16:00;93,2
2019-01-05 16:15;95,8
2019-01-05 16:30;96,45
2019-01-05 16:45;93,75
2019-01-05 17:00;94,7
2019-01-05 17:15;94,95
2019-01-05 17:30;98,45
2019-01-05 17:45;103,3
2019-01-05 18:00;106,25
2019-01-05 18:15;102,4
2019-01-05 18:30;102,4
2019-01-05 18:45;101,85
2019-01-05 19:00;103,9
2019-01-05 19:15;102,8
2019-01-05 19:30;102,7
2019-01-05 19:45;102,15
2019-01-05 20:00;97,1
2019-01-05 20:15;97,85
2019-01-05 20:30;97,9
2019-01-05 20:45;93,9
2019-01-05 21:00;94,6
2019-01-05 21:15;96,3
2019-01-05 21:30;96,05
2019-01-05 21:45;95,55
2019-01-05 22:00;92,2
2019-01-05 22:15;94,65
2019-01-05 22:30;95,45
2019-01-05 22:45;92,4
2019-01-05 23:00;97,35
2019-01-05 23:15;91,85
2019-01-05 23:30;97,2
2019-01-05 23:45;101,9
2019-01-06 00:00;88,2
2019-01-06 00:15;87,35
2019-01-06 00:30;89,05
2019-01-06 00:45;89,4
2019-01-06 01:00;90,35
2019-01-06 01:15;88,3
2019-01-06 01:30;86,65
2019-01-06 01:45;87,75
2019-01-06 02:00;88,35
2019-01-06 02:15;88,5
2019-01-06 02:30;86,4
2019-01-06 02:45;85,85
2019-01-06 03:00;87,75
2019-01-06 03:15;89,3
2019-01-06 03:30;89
2019-01-06 03:45;87,2
2019-01-06 04:00;87,1
2019-01-06 04:15;85,55
2019-01-06 04:30;85,35
2019-01-06 04:45;86,55
2019-01-06 05:00;85,15
2019-01-06 05:15;83,4
2019-01-06 05:30;83,15
2019-01-06 05:45;82,55
2019-01-06 06:00;84,1
2019-01-06 06:15;82,9
2019-01-06 06:30;82,1
2019-01-06 06:45;82,6
2019-01-06 07:00;81,4
2019-01-06 07:15;86,2
2019-01-06 07:30;85,65
2019-01-06 07:45;83,1
2019-01-06 08:00;81,2
2019-01-06 08:15;80,55
2019-01-06 08:30;83,3
2019-01-06 08:45;82,2
2019-01-06 09:00;79,65
2019-01-06 09:15;79,65
2019-01-06 09:30;78,65
2019-01-06 09:45;80,45
2019-01-06 10:00;83
2019-01-06 10:15;80,3
2019-01-06 10:30;79,1
2019-01-06 10:45;79,6
2019-01-06 11:00;87,75
2019-01-06 11:15;86,65
2019-01-06 11:30;87,65
2019-01-06 11:45;85,05
2019-01-06 12:00;78,95
2019-01-06 12:15;77,7
2019-01-06 12:30;78,15
2019-01-06 12:45;83,65
2019-01-06 13:00;80,65
2019-01-06 13:15;81,7
2019-01-06 13:30;82,8
2019-01-06 13:45;81,85
2019-01-06 14:00;80
2019-01-06 14:15;86,1
2019-01-06 14:30;84,25
2019-01-06 14:45;84,35
2019-01-06 15:00;84,4
2019-01-06 15:15;83,45
2019-01-06 15:30;83,25
2019-01-06 15:45;85,15
2019-01-06 16:00;83
2019-01-06 16:15;83,8
2019-01-06 16:30;83,45
2019-01-06 16:45;82,15
2019-01-06 17:00;83,4
2019-01-06 17:15;84,9
2019-01-06 17:30;86,75
2019-01-06 17:45;88,75
2019-01-06 18:00;91,15
2019-01-06 18:15;92
2019-01-06 18:30;93,65
2019-01-06 18:45;94,3
2019-01-06 19:00;91,6
2019-01-06 19:15;93,1
2019-01-06 19:30;93,35
2019-01-06 19:45;94
2019-01-06 20:00;92,6
2019-01-06 20:15;94,2
2019-01-06 20:30;91,5
2019-01-06 20:45;90,25
2019-01-06 21:00;92,6
2019-01-06 21:15;93,1
2019-01-06 21:30;91,15
2019-01-06 21:45;89,35
2019-01-06 22:00;90,05
2019-01-06 22:15;89,5
2019-01-06 22:30;89,2
2019-01-06 22:45;86,9
2019-01-06 23:00;92,7
2019-01-06 23:15;91,95
2019-01-06 23:30;96,6
2019-01-06 23:45;99,65

